Hourly Weather Cefalonia

Today, 19 June, Saturday

Time Temperature Precipitation Wind Pressure Humidity
00:00 +20°C° 0 mm 4 mps 742 mmHg 83%
01:00 +20°C° 0 mm 5 mps 742 mmHg 85%
02:00 +20°C° 0 mm 4 mps 741 mmHg 85%
03:00 +20°C° 0 mm 4 mps 741 mmHg 86%
04:00 +19°C° 0 mm 3 mps 741 mmHg 86%
05:00 +21°C° 0 mm 3 mps 741 mmHg 80%
06:00 +22°C° 0 mm 3 mps 741 mmHg 74%
07:00 +24°C° 0 mm 3 mps 741 mmHg 66%
08:00 +25°C° 0 mm 4 mps 741 mmHg 62%
09:00 +26°C° 0 mm 4 mps 741 mmHg 57%
10:00 +26°C° 0 mm 4 mps 741 mmHg 53%
11:00 +26°C° 0 mm 5 mps 741 mmHg 54%
12:00 +27°C° 0 mm 5 mps 740 mmHg 55%
13:00 +27°C° 0 mm 6 mps 740 mmHg 56%
14:00 +26°C° 0 mm 6 mps 740 mmHg 58%
15:00 +24°C° 0 mm 6 mps 740 mmHg 61%
16:00 +24°C° 0 mm 6 mps 740 mmHg 63%
17:00 +23°C° 0 mm 6 mps 740 mmHg 69%
18:00 +22°C° 0 mm 5 mps 740 mmHg 75%
19:00 +21°C° 0 mm 4 mps 740 mmHg 81%
20:00 +21°C° 0 mm 4 mps 740 mmHg 84%
21:00 +21°C° 0 mm 4 mps 740 mmHg 86%
22:00 +20°C° 0 mm 4 mps 740 mmHg 88%
23:00 +20°C° 0 mm 4 mps 740 mmHg 87%

Tomorrow, 20 June, Sunday

Time Temperature Precipitation Wind Pressure Humidity
00:00 +20°C° 0 mm 4 mps 740 mmHg 86%
01:00 +20°C° 0 mm 4 mps 740 mmHg 84%
02:00 +20°C° 0 mm 3 mps 740 mmHg 84%
03:00 +20°C° 0 mm 3 mps 739 mmHg 83%
04:00 +20°C° 0 mm 2 mps 739 mmHg 83%
05:00 +21°C° 0 mm 2 mps 739 mmHg 74%
06:00 +24°C° 0 mm 2 mps 739 mmHg 64%
07:00 +26°C° 0 mm 1 mps 739 mmHg 54%
08:00 +27°C° 0 mm 2 mps 740 mmHg 52%
09:00 +28°C° 0 mm 2 mps 740 mmHg 50%
10:00 +29°C° 0 mm 2 mps 740 mmHg 47%
11:00 +29°C° 0 mm 3 mps 740 mmHg 46%
12:00 +29°C° 0 mm 3 mps 740 mmHg 45%
13:00 +30°C° 0 mm 4 mps 739 mmHg 44%
14:00 +29°C° 0 mm 5 mps 739 mmHg 49%
15:00 +28°C° 0 mm 5 mps 739 mmHg 54%
16:00 +27°C° 0 mm 6 mps 739 mmHg 58%
17:00 +26°C° 0 mm 5 mps 739 mmHg 63%
18:00 +25°C° 0 mm 5 mps 739 mmHg 68%
19:00 +23°C° 0 mm 4 mps 739 mmHg 73%
20:00 +23°C° 0 mm 4 mps 739 mmHg 74%
21:00 +22°C° 0 mm 4 mps 739 mmHg 74%
22:00 +22°C° 0 mm 3 mps 739 mmHg 75%
23:00 +22°C° 0 mm 3 mps 739 mmHg 77%

Day after tomorrow, 21 June, Monday

Time Temperature Precipitation Wind Pressure Humidity
00:00 +21°C° 0 mm 3 mps 739 mmHg 80%
01:00 +21°C° 0 mm 3 mps 739 mmHg 82%
02:00 +21°C° 0 mm 2 mps 739 mmHg 79%
03:00 +21°C° 0 mm 2 mps 739 mmHg 77%
04:00 +21°C° 0 mm 2 mps 739 mmHg 74%
05:00 +24°C° 0 mm 1 mps 739 mmHg 67%
06:00 +26°C° 0 mm 1 mps 739 mmHg 59%
07:00 +28°C° 0 mm 1 mps 740 mmHg 51%
08:00 +29°C° 0 mm 1 mps 740 mmHg 48%
09:00 +30°C° 0 mm 2 mps 740 mmHg 45%
10:00 +30°C° 0 mm 2 mps 740 mmHg 43%
11:00 +31°C° 0 mm 3 mps 740 mmHg 43%
12:00 +32°C° 0 mm 4 mps 740 mmHg 43%
13:00 +32°C° 0 mm 4 mps 740 mmHg 43%
14:00 +32°C° 0 mm 4 mps 740 mmHg 43%
15:00 +32°C° 0 mm 4 mps 740 mmHg 43%
16:00 +32°C° 0 mm 4 mps 739 mmHg 43%
17:00 +29°C° 0 mm 4 mps 739 mmHg 47%
18:00 +27°C° 0 mm 3 mps 739 mmHg 52%
19:00 +26°C° 0 mm 2 mps 739 mmHg 57%
20:00 +26°C° 0 mm 2 mps 740 mmHg 56%
21:00 +25°C° 0 mm 2 mps 740 mmHg 54%
22:00 +25°C° 0 mm 1 mps 740 mmHg 53%
23:00 +25°C° 0 mm 1 mps 740 mmHg 52%

22 June, Tuesday

Time Temperature Precipitation Wind Pressure Humidity
00:00 +25°C° 0 mm 2 mps 740 mmHg 51%
01:00 +25°C° 0 mm 2 mps 740 mmHg 50%
02:00 +25°C° 0 mm 2 mps 740 mmHg 55%
03:00 +24°C° 0 mm 1 mps 740 mmHg 59%
04:00 +24°C° 0 mm 1 mps 739 mmHg 63%
05:00 +26°C° 0 mm 1 mps 740 mmHg 54%
06:00 +29°C° 0 mm 2 mps 740 mmHg 45%
07:00 +31°C° 0 mm 2 mps 740 mmHg 35%
08:00 +32°C° 0 mm 2 mps 740 mmHg 35%
09:00 +34°C° 0 mm 2 mps 740 mmHg 35%
10:00 +34°C° 0 mm 2 mps 740 mmHg 35%
11:00 +34°C° 0 mm 3 mps 740 mmHg 35%
12:00 +34°C° 0 mm 3 mps 740 mmHg 36%
13:00 +34°C° 0 mm 4 mps 740 mmHg 36%
14:00 +35°C° 0 mm 3 mps 740 mmHg 34%
15:00 +35°C° 0 mm 3 mps 740 mmHg 33%
16:00 +35°C° 0 mm 3 mps 740 mmHg 31%
17:00 +32°C° 0 mm 2 mps 740 mmHg 39%
18:00 +30°C° 0 mm 2 mps 740 mmHg 47%
19:00 +28°C° 0 mm 2 mps 740 mmHg 55%
20:00 +27°C° 0 mm 2 mps 740 mmHg 55%
21:00 +27°C° 0 mm 2 mps 741 mmHg 55%
22:00 +26°C° 0 mm 2 mps 741 mmHg 55%
23:00 +26°C° 0 mm 2 mps 741 mmHg 54%

23 June, Wednesday

Time Temperature Precipitation Wind Pressure Humidity
00:00 +26°C° 0 mm 2 mps 741 mmHg 53%
01:00 +26°C° 0 mm 2 mps 741 mmHg 52%
02:00 +26°C° 0 mm 2 mps 740 mmHg 52%
03:00 +25°C° 0 mm 2 mps 740 mmHg 52%
04:00 +25°C° 0 mm 2 mps 740 mmHg 51%
05:00 +27°C° 0 mm 2 mps 740 mmHg 47%
06:00 +29°C° 0 mm 1 mps 741 mmHg 42%
07:00 +31°C° 0 mm 1 mps 741 mmHg 38%
08:00 +32°C° 0 mm 1 mps 741 mmHg 35%
09:00 +35°C° 0 mm 2 mps 741 mmHg 33%
10:00 +36°C° 0 mm 2 mps 741 mmHg 31%
11:00 +37°C° 0 mm 2 mps 741 mmHg 29%
12:00 +38°C° 0 mm 2 mps 741 mmHg 28%
13:00 +38°C° 0 mm 2 mps 741 mmHg 26%
14:00 +37°C° 0 mm 2 mps 741 mmHg 29%
15:00 +36°C° 0 mm 3 mps 741 mmHg 33%
16:00 +35°C° 0 mm 4 mps 741 mmHg 36%
17:00 +34°C° 0 mm 3 mps 741 mmHg 39%
18:00 +31°C° 0 mm 3 mps 741 mmHg 42%
19:00 +30°C° 0 mm 2 mps 741 mmHg 44%
20:00 +29°C° 0 mm 2 mps 741 mmHg 45%
21:00 +29°C° 0 mm 2 mps 742 mmHg 45%
22:00 +28°C° 0 mm 2 mps 742 mmHg 46%
23:00 +27°C° 0 mm 1 mps 742 mmHg 47%

24 June, Thursday

Time Temperature Precipitation Wind Pressure Humidity
00:00 +27°C° 0 mm 1 mps 742 mmHg 48%
01:00 +27°C° 0 mm 1 mps 742 mmHg 49%
02:00 +24°C° 0 mm 0 mps 742 mmHg 50%
03:00 +24°C° 0 mm 0 mps 742 mmHg 51%
04:00 +24°C° 0 mm 0 mps 742 mmHg 52%
05:00 +28°C° 0 mm 1 mps 742 mmHg 46%
06:00 +31°C° 0 mm 1 mps 742 mmHg 39%
07:00 +33°C° 0 mm 1 mps 742 mmHg 33%
08:00 +35°C° 0 mm 2 mps 742 mmHg 31%
09:00 +36°C° 0 mm 2 mps 742 mmHg 30%
10:00 +37°C° 0 mm 2 mps 743 mmHg 29%
11:00 +38°C° 0 mm 2 mps 742 mmHg 27%
12:00 +38°C° 0 mm 3 mps 742 mmHg 25%
13:00 +39°C° 0 mm 3 mps 742 mmHg 24%
14:00 +38°C° 0 mm 4 mps 742 mmHg 26%
15:00 +37°C° 0 mm 5 mps 742 mmHg 28%
16:00 +36°C° 0 mm 6 mps 742 mmHg 30%
17:00 +34°C° 0 mm 5 mps 742 mmHg 33%
18:00 +32°C° 0 mm 4 mps 742 mmHg 36%
19:00 +30°C° 0 mm 4 mps 742 mmHg 39%
20:00 +30°C° 0 mm 3 mps 742 mmHg 39%
21:00 +29°C° 0 mm 3 mps 742 mmHg 39%
22:00 +29°C° 0 mm 2 mps 742 mmHg 39%
23:00 +29°C° 0 mm 2 mps 742 mmHg 42%
Show more

We Need Your Consent

Meteoprog and our Service Providers may store and access personal data such as cookies, device identifiers or other similar technologies on your device and process such data to personalise content and ads, as well as provide social media features and to analyse the traffic.

  • Store and/or access information on your device

    Cookies, device identifiers or other information can be stored or accessed on your device for the purposes indicated above.

  • Personalised ads and content, ad and content measurement, audience insights, and products development

    Ads and content can be personalised based on a profile. More data can be added to better personalise ads and content. Ad and content performance can be measured. Insights about the audience who saw the ads and content can be derived. Such data can be used to develop or improve user’s experience, systems and software.

By clicking ‘I Agree’ you will allow the use of indicated cookies, device identifiers, web beacons or other similar technologies. Your settings can be changed in the browser on your device.

For certain purposes, legitimate interests may be relied on, rather than consent. You can read more about this in our Privacy and Cookie Policy.